Regional Weather Roundup
Issued by NWS Columbia, SC

Current Version | Previous Version | Text Only | Print | Product List | Glossary On
Versions: 1 2 3 4 5 6 7 8 9 10 11 12 13 14 15 16 17 18 19 20 21 22 23 24 25 26 27 28 29 30 31 32 33 34 35 36 37 38 39 40 41 42 43 44 45 46 47 48 49 50
000
ASUS42 KCAE 251010
RWRCAE
REGIONAL WEATHER ROUNDUP
NATIONAL WEATHER SERVICE COLUMBIA SC
500 AM EST THU DEC 25 2014

NOTE: "FAIR" INDICATES FEW OR NO CLOUDS BELOW 12,000 FEET WITH NO
SIGNIFICANT WEATHER AND/OR OBSTRUCTIONS TO VISIBILITY.

NOT ALL STATIONS ARE QUALITY CONTROLLED BY THE NATIONAL
WEATHER SERVICE. USE DATA WITH CAUTION...ESPECIALLY
DEWPOINT OBSERVATIONS.

SCZ001>056-GAZ040-063>065-077-251100-
...UPSTATE SOUTH CAROLINA...

CITY           SKY/WX    TMP DP  RH WIND       PRES   REMARKS
ANDERSON       CLOUDY    46  39  76 W12       29.94R
LIBERTY        FAIR      45  35  69 W10       29.90R
SPARTANBURG    FAIR      48  39  71 W7        29.90R
CLEMSON        CLOUDY    47  33  58 W15G26    29.93R
GREENVILLE     CLOUDY    46  37  71 W10       29.90R
GREENWOOD      CLOUDY    47  40  76 W13G21    29.95R
GREER          CLOUDY    46  39  76 SW12      29.88R
ROCK HILL      CLOUDY    48  42  80 SW9       29.88R
CHESTER        FAIR      50  41  71 CALM      29.89R
LAURENS        FAIR      46  45  93 W9G16     29.92R


...CENTRAL SOUTH CAROLINA...

CITY           SKY/WX    TMP DP  RH WIND       PRES   REMARKS
COLUMBIA APT   CLOUDY    51  40  65 W14       29.93R
COLUMBIA OWENS CLOUDY    52  40  63 W10       29.93R
DARLINGTON     CLOUDY    52  43  71 W16G22    29.90R
FLORENCE       CLOUDY    54  44  69 W16G24    29.88R
MCENTIRE ANGB  CLOUDY    51  42  71 W12       29.92R
ORANGEBURG     CLOUDY    52  40  63 W12       29.95R
SUMTER SHAW    CLOUDY    51  42  72 W12G22    29.90R
NEWBERRY       FAIR      46  41  81 SW13G20   29.96R
AIKEN          FAIR      48  43  81 W12       29.99R
BARNWELL       FAIR      52  43  71 W9        29.98R
MANNING        CLOUDY    54  43  66 W6G16     29.94R
CAMDEN         FAIR      50  41  71 W8        29.91R
LANCASTER      FAIR      48  45  87 W13       29.89R
WINNSBORO      FAIR      48  43  81 W9        29.90R


...EASTERN AND COASTAL SOUTH CAROLINA...

CITY           SKY/WX    TMP DP  RH WIND       PRES   REMARKS
MYRTLE BEACH   CLOUDY    61  52  72 W16G23    29.88R
N MYRTLE BCH   CLOUDY    61  53  75 W10       29.86R
CONWAY         CLOUDY    57  48  72 W8G17     29.89R
MARION         CLOUDY    54  45  71 SW15G22   29.89R
HARTSVILLE     FAIR      52  41  66 W9G16     29.89R
FLORENCE       CLOUDY    54  44  69 W16G24    29.88R
DARLINGTON     CLOUDY    52  43  71 W16G22    29.90R
CHARLESTON APT CLOUDY    55  44  66 W14G22    29.96R
MOUNT PLEASANT FAIR      57  52  82 W12G18    29.94R
WALTERBORO     CLOUDY    54  41  62 W14G22    29.98R
BEAUFORT       CLOUDY    55  48  77 W9        29.98R


...EASTERN GEORGIA...

CITY           SKY/WX    TMP DP  RH WIND       PRES   REMARKS
AUGUSTA BUSH F CLOUDY    50  42  74 W8        29.97S
AUGUSTA DANIEL CLOUDY    51  42  71 W8        29.97S
THOMSON        CLOUDY    50  46  84 W9        30.03R
WASHINGTON     FAIR      48  46  93 W10       29.98R
CLAXTON        FAIR      52  46  82 W8        30.01R
SYLVANIA       PTSUNNY   52  47  83 NW10      30.00R
STATESBORO     MOCLDY    52  47  84 NW8       30.00S
SAVANNAH       CLOUDY    54  45  71 W8        30.00R


...SOUTHERN NORTH CAROLINA...

CITY           SKY/WX    TMP DP  RH WIND       PRES   REMARKS
CHARLOTTE      CLOUDY    48  44  86 W6        29.87R
MONROE         CLOUDY    49  43  80 W14       29.86R
WADESBORO      CLOUDY    52  46  78 SW5       29.85R
ROCKINGHAM     CLOUDY    51  46  82 W12G18    29.85R
RUTHERFORDTON  CLOUDY    46  35  66 W8        29.87R
ASHEVILLE      CLOUDY    41  33  73 N8        29.88R

$$



USA.gov is the U.S. government's official web portal to all federal, state and local government web resources and services.